ONEWEB-0086, 45456

Orbit data source: Space-Track

ONEWEB-0086, 45456 is a payload satellite owned by One Web (UK) in LEO that was launched on Sat, 21 Mar 2020 UTC via a SOYUZ-2-1B launch vehicle from the Tyuratam Missile And Space Complex (TTMTR). Payloads include a variety of satellites, spacecraft, and rockets equipped with specific instruments for various scientific and technological missions. These include communications satellites like Starlink; space stations such as the ISS; scientific satellites like the Hubble; Earth observation satellites from companies like Planet Labs, Umbra, and HawkEye 360; GPS; miniature CubeSats for education and research; and military/defense satellites.

Loading next visibility...
ONEWEB-0086 details
Identifier
45456, 2020-020AJ
Orbit
LEO
Last TLE update14 hours ago
Origin
Flag of UKOne Web (UK)
ManufacturerOne Web
MissionOperational Commercial Communications
Bus & MotorARROW, Unknown motor
Mass148 kg wet, ~140 kg dry
Launch date (UTC)
2020-03-21 (5 years ago)
Launch vehicle
SOYUZ-2-1B
Launch site
Tyuratam Missile And Space Complex (TTMTR)
Object type
Payload
Rocket body
Debris
Shape & HBRTrap Box + 2 Pan, 5 m
Radar Cross Section2.957 m², Large (>1 m²)

Expand to show TLE details & history

TLE from 14 hours ago
0 ONEWEB-0086
1 45456U 20020AJ  24355.91876963  .00000250  00000-0  66896-3 0  9991
2 45456  87.8898 129.3104 0001439  86.1862 273.9431 13.11416544231401
Epoch: 2024-12-20T22:03Z
Definitive object data (Epoch: 2024-12-20T22:03:01.696Z)
Latitude0.00006°
Longitude68.57595°
Altitude1,220.498 km
Speed7.244 km/s
True Right ascension08h 37m 14s
True Declination0° 00' 00"
Sunlit
Object was in full shadow at TLE epoch
Visualization TLE readout
Latitude-81.97922°
Longitude-96.46092°
Altitude1,247.203 km
Speed7.231 km/s
Apparent Right ascension22h 56m 48s
Apparent Declination-63° 05' 15"
Sunlit
Object is in daylight
Visualization observer readout
Local Sidereal Time11:13:50
Azimuth175.129° S
Elevation-66.689°
Doppler factor1
Orbital elements
Apogee altitude1,215.895 km
Perigee altitude1,213.71 km
Semi-major axis7,592.939 km
Eccentricity0.0001439
Inclination87.8898°
RAAN129.3104°
Arg. of periapsis86.1862°
True anomaly273.92665°
Mean anomaly273.9431°
Eccentric anomaly273.93487°
Mean motion3.28041 °/min
BSTAR0.00066896
Orbital period109.74 mins
Loading maneuver chart data...
Loading historical data...
Loading historical data...
Loading historical data...
Loading historical data...
Loading historical data...
Loading historical data...
Loading historical data...

ONEWEB-0086 Visibility forecast

Observer location: undefined°, undefined

Span
Click to sort rows by Start time (UTC) header in descending order
Start Az.
Max El. time (UTC)
Max El. Az.
Max El.
End time (UTC)
End Az.
13 mins2024-12-21 20:37:04.762Z11.172° NNE2024-12-21 20:44:04.762Z85.336° E36.169°2024-12-21 20:50:04.762Z153.289° SSE
10 mins2024-12-21 22:29:04.762Z330.674° NNW2024-12-21 22:34:04.762Z274.364° WNW27.07°2024-12-21 22:39:04.762Z226.736° WSW
12 mins2024-12-22 08:57:04.762Z153.868° SSE2024-12-22 09:03:04.762Z75.655° E38.324°2024-12-22 09:09:04.762Z12.162° NNE
10 mins2024-12-22 10:48:04.762Z232.078° WSW2024-12-22 10:53:04.762Z283.302° WNW24.912°2024-12-22 10:58:04.762Z332.979° NNW
|